Location: Mascot Post Office (historical)
(40.2645°N, 99.5462°W)
Time: 02:45:46
(UTC+00:00)

CBERS-1 - Pass Details

Date: 14 July 2020
Orbit: 769 x 777 km, 98.6° (Epoch: 14 August)

Event Time Altitude Azimuth Distance (km) Brightness Sun altitude
Rises 09:14:56 0° 8° (N) 3,265 8.3 -18.9°
Reaches altitude 10° 09:17:17 10° 5° (N) 2,333 7.3 -18.6°
Maximum altitude 09:22:19 57° 288° (WNW) 912 4.2 -18.0°
Enters shadow 09:24:32 32° 224° (SW) 1,317 4.6 -17.8°
